Madison, SD

5:16 PM CDT on September 26, 2016 (GMT -0500)
Madison Municipal

Weather History for KMDS - November, 2012

Change the Weather History Date:

Sunday, November 18, 2012

  Actual Average Record
Temperature  
Mean Temperature 44 °F -  
Max Temperature 57 °F 38 °F 57 °F (2012)
Min Temperature 32 °F 21 °F 3 °F (2014)
Degree Days  
Heating Degree Days 20    
Moisture  
Dew Point 36 °F    
Average Humidity 77    
Maximum Humidity 100    
Minimum Humidity 47    
Precipitation  
Precipitation 0.00 in - - ()
Sea Level Pressure  
Sea Level Pressure 29.98 in    
Wind  
Wind Speed 13 mph (South)    
Max Wind Speed 20 mph    
Max Gust Speed 25 mph    
Visibility 10 miles    
Events      
Averages and records for this station are not official NWS values.
T = Trace of Precipitation, MM = Missing Value Source: NWS Daily Summary

Daily Weather History Graph

Daily Weather History Graph

Search for Another Location

Airport or City:

Trip Planner

Search our weather history database for the weather conditions in past years. The results will help you decide how hot, cold, wet, or windy it might be!

Date:

Astronomy

Nov. 18, 2012 Rise Set
Actual Time 7:27 AM CST 4:58 PM CST
Civil Twilight 6:56 AM CST 5:30 PM CST
Nautical Twilight 6:21 AM CST 6:05 PM CST
Astronomical Twilight 5:47 AM CST 6:39 PM CST
Moon 11:53 AM CST (11/18) 10:23 PM CST (11/18)
Length of Visible Light 10h 33m
Length of Day
9h 30m
Waxing Crescent, 30% of the Moon is Illuminated
Nov 18
Waxing Crescent
Nov 20
First Quarter
Nov 28
Full
Dec 6
Last Quarter
Dec 13
New

Hourly Weather History & Observations

Time (CST) Temp. Windchill Dew Point Humidity Pressure Visibility Wind Dir Wind Speed Gust Speed Precip Events Conditions
12:00 AM 41.0 °F 33.5 °F 37.4 °F 87% 30.02 in 10.0 mi South 13.8 mph - N/A   Clear
12:20 AM 41.0 °F 33.9 °F 37.4 °F 87% 30.01 in 10.0 mi South 12.7 mph - N/A   Clear
12:40 AM 39.2 °F 31.6 °F 37.4 °F 93% 30.02 in 10.0 mi South 12.7 mph - N/A   Clear
1:00 AM 39.2 °F 31.2 °F 37.4 °F 93% 30.01 in 10.0 mi SSE 13.8 mph - N/A   Clear
1:20 AM 39.2 °F 31.2 °F 39.2 °F 100% 30.01 in 10.0 mi SSE 13.8 mph - N/A   Clear
1:40 AM 39.2 °F 31.2 °F 39.2 °F 100% 30.01 in 10.0 mi South 13.8 mph - N/A   Clear
2:00 AM 39.2 °F 31.6 °F 39.2 °F 100% 30.01 in 10.0 mi South 12.7 mph - N/A   Clear
2:20 AM 37.4 °F 29.8 °F 37.4 °F 100% 30.01 in 10.0 mi South 11.5 mph - N/A   Clear
2:40 AM 37.4 °F 30.3 °F 37.4 °F 100% 30.02 in 10.0 mi South 10.4 mph - N/A   Clear
3:00 AM 37.4 °F 29.3 °F 37.4 °F 100% 30.01 in 10.0 mi South 12.7 mph - N/A   Clear
3:20 AM 35.6 °F 27.5 °F 35.6 °F 100% 30.02 in 10.0 mi South 11.5 mph - N/A   Clear
3:40 AM 35.6 °F 28.0 °F 35.6 °F 100% 30.01 in 10.0 mi South 10.4 mph - N/A   Clear
4:00 AM 35.6 °F 28.0 °F 35.6 °F 100% 30.01 in 10.0 mi South 10.4 mph - N/A   Clear
4:20 AM 33.8 °F 25.8 °F 33.8 °F 100% 30.01 in 10.0 mi South 10.4 mph - N/A   Clear
4:40 AM 32.0 °F 24.2 °F 32.0 °F 100% 30.01 in 10.0 mi South 9.2 mph - N/A   Clear
5:00 AM 32.0 °F 23.6 °F 32.0 °F 100% 30.01 in 10.0 mi South 10.4 mph - N/A   Clear
5:20 AM 32.0 °F 24.8 °F 32.0 °F 100% 30.01 in 10.0 mi South 8.1 mph - N/A   Clear
5:40 AM 32.0 °F 26.4 °F 32.0 °F 100% 30.01 in 10.0 mi South 5.8 mph - N/A   Clear
6:00 AM 32.0 °F 24.8 °F 32.0 °F 100% 30.01 in 10.0 mi South 8.1 mph - N/A   Clear
6:20 AM 32.0 °F 24.8 °F 32.0 °F 100% 30.00 in 10.0 mi South 8.1 mph - N/A   Clear
6:40 AM 32.0 °F 24.2 °F 32.0 °F 100% 30.00 in 10.0 mi South 9.2 mph - N/A   Clear
7:00 AM 32.0 °F 23.0 °F 32.0 °F 100% 30.00 in 10.0 mi South 11.5 mph - N/A   Clear
7:20 AM 32.0 °F 22.5 °F 32.0 °F 100% 30.00 in 10.0 mi South 12.7 mph - N/A   Clear
7:40 AM 32.0 °F 23.0 °F 32.0 °F 100% 30.00 in 10.0 mi South 11.5 mph - N/A   Clear
8:00 AM 32.0 °F 24.2 °F 32.0 °F 100% 30.01 in 10.0 mi South 9.2 mph - N/A   Clear
8:20 AM 35.6 °F 27.5 °F 35.6 °F 100% 30.01 in 10.0 mi South 11.5 mph - N/A   Clear
8:40 AM 35.6 °F 28.0 °F 35.6 °F 100% 30.01 in 10.0 mi South 10.4 mph - N/A   Clear
9:00 AM 37.4 °F 30.3 °F 37.4 °F 100% 30.00 in 10.0 mi South 10.4 mph - N/A   Clear
9:20 AM 39.2 °F 31.6 °F 37.4 °F 93% 30.01 in 10.0 mi South 12.7 mph - N/A   Clear
9:40 AM 39.2 °F 32.5 °F 37.4 °F 93% 30.01 in 10.0 mi South 10.4 mph - N/A   Clear
10:00 AM 41.0 °F 34.3 °F 39.2 °F 93% 30.00 in 10.0 mi South 11.5 mph - N/A   Clear
10:20 AM 42.8 °F 35.4 °F 39.2 °F 87% 30.00 in 10.0 mi South 15.0 mph - N/A   Partly Cloudy
10:40 AM 44.6 °F 38.4 °F 37.4 °F 76% 30.00 in 10.0 mi South 12.7 mph - N/A   Partly Cloudy
11:00 AM 48.2 °F - 37.4 °F 66% 30.00 in 10.0 mi South 15.0 mph - N/A   Mostly Cloudy
11:20 AM 50.0 °F - 37.4 °F 62% 29.99 in 10.0 mi South 13.8 mph 20.7 mph N/A   Scattered Clouds
11:40 AM 51.8 °F - 37.4 °F 58% 29.99 in 10.0 mi South 11.5 mph 19.6 mph N/A   Clear
12:00 PM 53.6 °F - 37.4 °F 54% 29.98 in 10.0 mi SSE 15.0 mph - N/A   Clear
12:20 PM 53.6 °F - 37.4 °F 54% 29.97 in 10.0 mi SSE 13.8 mph - N/A   Clear
12:40 PM 50.0 °F - 35.6 °F 58% 29.97 in 10.0 mi South 13.8 mph - N/A   Clear
1:00 PM 50.0 °F - 35.6 °F 58% 29.96 in 10.0 mi South 15.0 mph 19.6 mph N/A   Clear
1:20 PM 53.6 °F - 35.6 °F 51% 29.95 in 10.0 mi SSE 15.0 mph 21.9 mph N/A   Clear
1:40 PM 55.4 °F - 37.4 °F 51% 29.94 in 10.0 mi South 16.1 mph 20.7 mph N/A   Clear
2:00 PM 57.2 °F - 37.4 °F 48% 29.94 in 10.0 mi South 16.1 mph 23.0 mph N/A   Clear
2:20 PM 53.6 °F - 35.6 °F 51% 29.94 in 10.0 mi South 16.1 mph 24.2 mph N/A   Clear
2:40 PM 55.4 °F - 37.4 °F 51% 29.93 in 10.0 mi South 17.3 mph 24.2 mph N/A   Clear
3:00 PM 57.2 °F - 37.4 °F 48% 29.93 in 10.0 mi South 19.6 mph 24.2 mph N/A   Clear
3:20 PM 55.4 °F - 35.6 °F 47% 29.94 in 10.0 mi South 16.1 mph 21.9 mph N/A   Clear
3:40 PM 53.6 °F - 35.6 °F 51% 29.93 in 10.0 mi SSE 11.5 mph - N/A   Clear
4:00 PM 53.6 °F - 35.6 °F 51% 29.94 in 10.0 mi SSE 13.8 mph - N/A   Clear
4:20 PM 53.6 °F - 35.6 °F 51% 29.94 in 10.0 mi South 15.0 mph 24.2 mph N/A   Clear
4:40 PM 51.8 °F - 35.6 °F 54% 29.94 in 10.0 mi South 12.7 mph - N/A   Clear
5:00 PM 50.0 °F - 35.6 °F 58% 29.95 in 10.0 mi SSE 15.0 mph 20.7 mph N/A   Clear
5:20 PM 50.0 °F - 35.6 °F 58% 29.95 in 10.0 mi SSE 12.7 mph 19.6 mph N/A   Clear
5:40 PM 50.0 °F - 35.6 °F 58% 29.95 in 10.0 mi SSE 15.0 mph - N/A   Clear
6:00 PM 48.2 °F - 35.6 °F 62% 29.95 in 10.0 mi South 12.7 mph - N/A   Clear
6:20 PM 48.2 °F - 35.6 °F 62% 29.96 in 10.0 mi SSE 12.7 mph - N/A   Clear
6:40 PM 48.2 °F - 35.6 °F 62% 29.95 in 10.0 mi SSE 13.8 mph 20.7 mph N/A   Clear
7:00 PM 46.4 °F 40.7 °F 35.6 °F 66% 29.95 in 10.0 mi SSE 12.7 mph 17.3 mph N/A   Clear
7:20 PM 48.2 °F - 33.8 °F 58% 29.95 in 10.0 mi South 17.3 mph 25.3 mph N/A   Clear
7:40 PM 48.2 °F - 33.8 °F 58% 29.96 in 10.0 mi SSE 17.3 mph 25.3 mph N/A   Clear
8:00 PM 46.4 °F 39.8 °F 33.8 °F 62% 29.96 in 10.0 mi SSE 16.1 mph 21.9 mph N/A   Clear
8:20 PM 46.4 °F 39.8 °F 33.8 °F 62% 29.96 in 10.0 mi South 16.1 mph 21.9 mph N/A   Clear
8:40 PM 46.4 °F 40.1 °F 33.8 °F 62% 29.97 in 10.0 mi SSE 15.0 mph - N/A   Clear
9:00 PM 44.6 °F 39.2 °F 33.8 °F 66% 29.96 in 10.0 mi SSE 10.4 mph 19.6 mph N/A   Clear
9:20 PM 44.6 °F 38.1 °F 33.8 °F 66% 29.96 in 10.0 mi South 13.8 mph - N/A   Clear
9:40 PM 44.6 °F 38.1 °F 33.8 °F 66% 29.96 in 10.0 mi South 13.8 mph - N/A   Clear
10:00 PM 42.8 °F 36.2 °F 35.6 °F 76% 29.96 in 10.0 mi South 12.7 mph - N/A   Clear
10:20 PM 44.6 °F 37.8 °F 35.6 °F 71% 29.95 in 10.0 mi South 15.0 mph - N/A   Clear
10:40 PM 42.8 °F 35.1 °F 35.6 °F 76% 29.95 in 10.0 mi South 16.1 mph - N/A   Clear
11:00 PM 42.8 °F 36.2 °F 35.6 °F 76% 29.95 in 10.0 mi South 12.7 mph - N/A   Clear
11:20 PM 41.0 °F 33.9 °F 35.6 °F 81% 29.95 in 10.0 mi South 12.7 mph 18.4 mph N/A   Clear
11:40 PM 41.0 °F 33.5 °F 35.6 °F 81% 29.95 in 10.0 mi South 13.8 mph - N/A   Clear